Starlink 32658

operational
NORAD ID: 62999 Int'l Des: 2025-031 Owner: SPXS Country: US Constellation: starlink
LEOCIRCULAR

About Starlink 32658

Description loading...

Live Position

Loading 3D Globe...

Upcoming Passes

Altitude History

Altitude vs Time

uPlot chart will show altitude changes over time

Two-Line Element Set

1 62999U 25031U 25257.45213121 .00015876 00000-0 58475-3 0 9995
2 62999 43.0072 58.4859 0004553 288.4399 71.5958 15.27598534 34148
Epoch: Sep 14, 2025 • Age: 33 hours

Current Status

Altitude 481.1 km
Velocity 7.63 km/s
Sub-Earth Point 5.01°N, 123.51°E
Launch Date Feb 11, 2025
Age 0.5 years
Type internet

Technical Details

Classification Payload
Mass 730.00 kg
Dry Mass 700.00 kg
Total Mass 730.00 kg
Length 0.30 m
Diameter 4.10 m
Span 29.00 m
Shape Box + pan
Manufacturer SPXS
Bus Type Starlink V2M
Phase Status In Orbit
Owner/State SPXS/US

Large Constellations

Loading constellations...